Location: Unspecified
(0.0000°N, 0.0000°E)
Time: 12:31:29
(UTC+00:00)

Vanguard 1 Rocket - Visible Passes

Search period start: 25 April 2015 00:00
Search period end: 05 May 2015 00:00
Orbit: 655 x 4224 km, 34.3° (Epoch: 22 April)

Date Brightness Start Highest point End Pass type
(mag) Time Alt. Az. Time Alt. Az. Time Alt. Az.
25 Apr 11.1 01:04:51 38° NNW 01:04:51 38° NNW 01:24:44 10° NE visible
25 Apr 11.6 03:25:06 10° NW 03:42:10 20° N 03:55:21 10° NNE visible
25 Apr 10.1 18:37:43 10° S 18:44:29 20° SE 18:51:48 15° ESE visible
25 Apr 9.7 20:59:48 10° SW 21:39:20 - ENE 21:09:12 60° SSW visible
25 Apr 11.1 23:56:30 37° NNE 23:56:30 37° NNE 00:10:48 10° NE visible
26 Apr 11.4 02:13:39 20° NW 02:24:30 25° NNW 02:41:47 10° NNE visible
26 Apr 11.5 04:50:39 10° NW 05:04:29 19° N 05:14:46 10° NE visible
26 Apr 9.6 19:49:40 10° SSW 20:00:11 48° SE 20:03:11 45° ESE visible
26 Apr 10.5 22:14:43 10° WSW 22:47:59 26° NE 22:56:06 10° NE visible
27 Apr 11.2 01:05:06 32° NNW 01:06:53 33° NNW 01:27:57 10° NNE visible
27 Apr 11.6 03:31:07 10° NW 03:47:34 20° N 04:00:28 10° NE visible
27 Apr 9.8 18:40:31 10° SSW 18:48:07 27° SE 18:57:26 16° E visible
27 Apr 9.6 21:03:23 10° SW 21:39:14 12° NE 21:40:31 10° NE visible
27 Apr 11.1 23:31:58 10° W 23:56:21 38° N 00:13:44 10° NE visible
28 Apr 11.6 02:13:27 13° NW 02:29:43 23° N 02:46:00 10° NNE visible
28 Apr 11.5 04:54:23 10° NW 05:09:41 22° N 05:20:41 10° NE visible
28 Apr 9.4 19:53:01 10° SW 20:03:28 60° SE 20:09:34 44° E visible
28 Apr 10.4 22:18:51 10° WSW 22:47:14 32° NNE 22:58:58 10° NE visible
29 Apr 11.3 01:04:18 25° NW 01:11:45 28° NNW 01:31:27 10° NNE visible
29 Apr 11.6 03:36:20 10° NW 03:52:59 20° N 04:06:07 10° NE visible
29 Apr 9.5 18:43:31 10° SSW 18:51:34 35° SE 19:04:55 12° E visible
29 Apr 9.7 21:07:10 10° WSW 21:19:51 76° NW 21:43:35 10° NE visible
29 Apr 11.0 23:36:58 10° W 23:54:30 35° NNW 00:16:45 10° NE visible
30 Apr 11.7 02:17:13 10° NW 02:35:07 21° N 02:50:51 10° NE visible
30 Apr 11.4 04:57:36 10° NW 05:14:42 26° NNE 05:26:23 10° ENE visible
30 Apr 9.2 19:56:30 10° SW 20:06:49 76° SE 20:27:32 10° ENE visible
30 Apr 10.5 22:23:17 10° W 22:38:20 46° NNW 23:01:46 10° NE visible
01 May 11.5 00:58:47 10° WNW 01:16:53 24° NNW 01:35:23 10° NE visible
01 May 11.6 03:40:43 10° NW 03:58:19 23° N 04:11:59 10° NE visible
01 May 9.2 18:46:42 10° SSW 18:54:55 46° SE 19:10:45 10° ENE visible
01 May 9.9 21:11:09 10° WSW 21:23:36 62° NNW 21:46:28 10° NE visible
01 May 11.2 23:42:21 10° WNW 23:59:12 30° NNW 00:19:58 10° NE visible
02 May 11.7 02:22:50 10° NW 02:40:36 21° N 02:56:18 10° NE visible
02 May 11.2 05:00:30 10° NW 05:19:30 32° NNE 05:31:43 10° E visible
02 May 9.2 20:00:11 10° SW 20:10:17 87° NW 20:30:46 10° NE visible
02 May 10.8 22:28:02 10° W 22:42:42 38° NNW 23:04:36 10° NE visible
03 May 11.6 01:04:50 10° NW 01:22:14 22° N 01:39:55 10° NE visible
03 May 11.5 03:44:26 10° NW 04:03:27 26° NNE 04:17:47 10° ENE visible
03 May 8.9 18:50:04 10° SW 18:58:15 61° SE 19:14:40 10° ENE visible
03 May 10.2 21:15:25 10° W 21:27:37 50° NNW 21:49:13 10° NE visible
03 May 11.4 23:48:04 10° WNW 00:04:13 26° NNW 00:23:33 10° NE visible
04 May 11.7 02:27:42 10° NW 02:46:01 23° N 03:02:09 10° NE visible
04 May 11.0 05:03:16 10° NW 05:24:03 40° NNE 05:36:40 10° E visible
04 May 9.5 20:04:03 10° WSW 20:13:59 69° NNW 20:33:46 10° NE visible
04 May 11.0 22:33:10 10° WNW 22:47:20 31° NNW 23:07:32 10° NE visible
